KG4K-13 Weather Reports


Display with metric or nautical units.
time (UTC)temp
F
wind
direction
speed
MPH
gust
MPH
rain 1hr
in
rain 24hr
in
rain mn
in
humidity
%
barometer
mb
20260504190558 74 339 1.0 7.0 0.00 0.00 0.00 47 1012.3
20260504185518 74 355 1.0 4.0 0.00 0.00 0.00 46 1012.5
20260504184518 73 262 1.0 4.0 0.00 0.00 0.00 49 1012.7
20260504183516 74 178 1.0 5.0 0.00 0.00 0.00 47 1012.8
20260504182515 73 319 1.0 4.0 0.00 0.00 0.00 48 1012.9
20260504181516 73 198 2.0 5.0 0.00 0.00 0.00 47 1013.1
20260504180516 73 179 1.0 4.0 0.00 0.00 0.00 45 1013.1
20260504175516 73 188 1.0 5.0 0.00 0.00 0.00 45 1013.3
20260504174516 73 285 1.0 4.0 0.00 0.00 0.00 44 1013.4
20260504173516 73 243 1.0 3.0 0.00 0.00 0.00 47 1013.6
20260504172516 73 8 1.0 4.0 0.00 0.00 0.00 46 1013.7
20260504171517 72 354 1.0 3.0 0.00 0.00 0.00 47 1013.6
20260504170517 71 339 1.0 3.0 0.00 0.00 0.00 50 1013.8
20260504150516 67 269 1.0 3.0 0.00 0.00 0.00 55 1015.0
20260504140517 64 13 0.0 2.0 0.00 0.00 0.00 48 1015.1
20260504130518 59 215 1.0 4.0 0.00 0.00 0.00 51 1015.3
20260504110517 53 9 0.0 2.0 0.00 0.00 0.00 62 1015.8
20260504100518 54 219 1.0 4.0 0.00 0.00 0.00 63 1015.9
20260504081519 54 234 0.0 2.0 0.00 0.00 0.00 64 1016.0
20260504080520 54 247 0.0 1.0 0.00 0.00 0.00 62 1016.0
20260504050517 49 297 0.0 1.0 0.00 0.00 0.00 71 1016.2
20260504045537 49 299 0.0 1.0 0.00 0.00 0.00 71 1016.2
20260504044518 49 29 0.0 1.0 0.00 0.00 0.00 70 1016.3
20260504043518 48 32 0.0 1.0 0.00 0.00 0.00 71 1016.2
20260504042518 47 343 0.0 1.0 0.00 0.00 0.00 73 1016.3
20260504041518 47 310 0.0 1.0 0.00 0.00 0.00 77 1016.3
20260504040515 47 301 0.0 1.0 0.00 0.00 0.00 84 1016.2
20260504035516 46 332 0.0 1.0 0.00 0.00 0.00 81 1016.2
20260504034516 46 296 0.0 1.0 0.00 0.00 0.00 84 1016.1
20260504033516 47 308 0.0 1.0 0.00 0.00 0.00 83 1016.1
20260504032516 47 309 1.0 2.0 0.00 0.00 0.00 83 1015.9
20260504031516 47 290 0.0 1.0 0.00 0.00 0.00 82 1015.8
20260504030516 47 9 0.0 1.0 0.00 0.00 0.00 82 1015.8
20260504025516 47 295 0.0 2.0 0.00 0.00 0.00 81 1015.8
20260504024536 48 318 0.0 1.0 0.00 0.00 0.00 80 1015.8
20260504023517 48 340 0.0 1.0 0.00 0.00 0.00 79 1015.8
20260504022517 48 307 0.0 1.0 0.00 0.00 0.00 78 1015.8
20260504021517 49 313 0.0 1.0 0.00 0.00 0.00 77 1015.8
20260504020517 49 312 0.0 1.0 0.00 0.00 0.00 76 1015.7
20260504015518 50 293 0.0 1.0 0.00 0.00 0.00 74 1015.7
20260504014518 50 292 0.0 1.0 0.00 0.00 0.00 72 1015.7
20260504013518 50 298 1.0 2.0 0.00 0.00 0.00 72 1015.6
20260504012518 51 292 1.0 2.0 0.00 0.00 0.00 71 1015.5
20260504011515 52 295 0.0 2.0 0.00 0.00 0.00 67 1015.4
20260504010518 52 294 0.0 1.0 0.00 0.00 0.00 61 1015.4
20260504005515 53 277 0.0 1.0 0.00 0.00 0.00 60 1015.4
20260504004515 54 288 0.0 1.0 0.00 0.00 0.00 60 1015.3
20260504003516 56 259 0.0 1.0 0.00 0.00 0.00 53 1015.2
20260504002516 57 291 0.0 1.0 0.00 0.00 0.00 47 1015.0
20260504001516 58 288 0.0 1.0 0.00 0.00 0.00 42 1014.9
20260504000516 59 284 0.0 1.0 0.00 0.00 0.00 41 1014.9
20260503235516 60 263 0.0 1.0 0.00 0.00 0.00 39 1014.8
20260503234516 60 301 1.0 2.0 0.00 0.00 0.00 38 1014.6
20260503233517 61 310 2.0 3.0 0.00 0.00 0.00 38 1014.6
20260503232517 62 306 2.0 4.0 0.00 0.00 0.00 36 1014.5
20260503231517 63 318 2.0 6.0 0.00 0.00 0.00 34 1014.5
20260503230518 63 310 2.0 4.0 0.00 0.00 0.00 35 1014.5
20260503225538 63 315 4.0 7.0 0.00 0.00 0.00 34 1014.5
20260503224518 63 313 4.0 7.0 0.00 0.00 0.00 34 1014.6
20260503223535 64 314 3.0 6.0 0.00 0.00 0.00 34 1014.6
20260503222515 64 304 3.0 6.0 0.00 0.00 0.00 33 1014.4
20260503221535 64 317 3.0 6.0 0.00 0.00 0.00 33 1014.6
20260503220516 63 312 3.0 8.0 0.00 0.00 0.00 34 1014.6
20260503215515 63 319 3.0 5.0 0.00 0.00 0.00 34 1014.6
20260503214516 63 307 4.0 7.0 0.00 0.00 0.00 34 1014.6
20260503213516 62 316 4.0 7.0 0.00 0.00 0.00 35 1014.5
20260503212516 62 310 5.0 9.0 0.00 0.00 0.00 35 1014.6
20260503211516 61 312 4.0 7.0 0.00 0.00 0.00 37 1014.5
20260503210516 61 313 5.0 9.0 0.00 0.00 0.00 36 1014.5
20260503205557 61 299 5.0 10.0 0.00 0.00 0.00 36 1014.6
20260503204517 61 320 4.0 10.0 0.00 0.00 0.00 37 1014.7
20260503203517 61 306 3.0 6.0 0.00 0.00 0.00 38 1014.8
20260503202517 61 308 3.0 7.0 0.00 0.00 0.00 36 1014.9
20260503201537 61 308 3.0 9.0 0.00 0.00 0.00 37 1014.9
20260503200518 61 299 4.0 7.0 0.00 0.00 0.00 36 1015.1
20260503195518 61 311 4.0 8.0 0.00 0.00 0.00 37 1015.3
20260503194518 61 313 5.0 8.0 0.00 0.00 0.00 38 1015.3
20260503193518 60 309 4.0 8.0 0.00 0.00 0.00 38 1015.4
20260503192515 60 302 5.0 10.0 0.00 0.00 0.00 38 1015.5
20260503191515 60 305 4.0 7.0 0.00 0.00 0.00 38 1015.7